Time,TemperatureF,DewpointF,PressureIn,WindDirection,WindDirectionDegrees,WindSpeedMPH,WindSpeedGustMPH,Humidity,HourlyPrecipIn,Conditions,Clouds,dailyrainin,SoftwareType,DateUTC
2013-07-27 00:01:00,55.3,48.2,30.08,NNW,329,0.0,0.0,77,0.00,,,0.00,WeatherCatV1.20B785,2013-07-27 05:01:00,
2013-07-27 00:06:00,55.0,48.3,30.08,NNW,329,0.0,0.0,78,0.00,,,0.00,WeatherCatV1.20B785,2013-07-27 05:06:00,
2013-07-27 00:11:00,54.8,48.1,30.08,NNW,329,0.0,0.0,78,0.00,,,0.00,WeatherCatV1.20B785,2013-07-27 05:11:00,
2013-07-27 00:16:00,54.4,48.0,30.08,NNW,329,0.0,0.0,79,0.00,,,0.00,WeatherCatV1.20B785,2013-07-27 05:16:00,
2013-07-27 00:21:00,54.1,47.7,30.08,NNW,329,0.0,0.0,79,0.00,,,0.00,WeatherCatV1.20B785,2013-07-27 05:21:00,
2013-07-27 00:26:00,53.8,47.4,30.08,NNW,329,0.0,0.0,79,0.00,,,0.00,WeatherCatV1.20B785,2013-07-27 05:26:00,
2013-07-27 00:31:00,53.5,47.5,30.08,NNW,329,0.0,0.0,80,0.00,,,0.00,WeatherCatV1.20B785,2013-07-27 05:31:00,
2013-07-27 00:36:00,53.2,47.2,30.08,NNW,329,0.0,0.0,80,0.00,,,0.00,WeatherCatV1.20B785,2013-07-27 05:36:00,
2013-07-27 00:41:00,52.9,47.2,30.08,NNW,329,0.0,0.0,81,0.00,,,0.00,WeatherCatV1.20B785,2013-07-27 05:41:00,
2013-07-27 00:46:00,52.6,47.3,30.09,NNW,329,0.0,0.0,82,0.00,,,0.00,WeatherCatV1.20B785,2013-07-27 05:46:00,
2013-07-27 00:51:00,52.3,47.0,30.09,NNW,329,0.0,0.0,82,0.00,,,0.00,WeatherCatV1.20B785,2013-07-27 05:51:00,
2013-07-27 00:54:00,52.2,46.9,30.09,NNW,329,0.0,0.0,82,0.00,,,0.00,WeatherCatV1.20B785,2013-07-27 05:54:00,
2013-07-27 00:59:00,52.2,47.2,30.09,NNW,329,0.0,0.0,83,0.00,,,0.00,WeatherCatV1.20B785,2013-07-27 05:59:00,
2013-07-27 01:04:00,52.2,47.2,30.09,NNW,329,0.0,2.0,83,0.00,,,0.00,WeatherCatV1.20B785,2013-07-27 06:04:00,
2013-07-27 01:09:00,52.4,47.4,30.09,NW,324,0.0,0.0,83,0.00,,,0.00,WeatherCatV1.20B785,2013-07-27 06:09:00,
2013-07-27 01:14:00,52.5,47.2,30.09,NW,324,0.0,0.0,82,0.00,,,0.00,WeatherCatV1.20B785,2013-07-27 06:14:00,
2013-07-27 01:19:00,52.6,47.3,30.09,WNW,301,1.0,2.0,82,0.00,,,0.00,WeatherCatV1.20B785,2013-07-27 06:19:00,
2013-07-27 01:24:00,52.6,47.3,30.09,WNW,301,0.0,2.0,82,0.00,,,0.00,WeatherCatV1.20B785,2013-07-27 06:24:00,
2013-07-27 01:29:00,52.6,47.3,30.09,WNW,301,0.0,2.0,82,0.00,,,0.00,WeatherCatV1.20B785,2013-07-27 06:29:00,
2013-07-27 01:34:00,52.5,47.2,30.09,WNW,301,0.0,1.0,82,0.00,,,0.00,WeatherCatV1.20B785,2013-07-27 06:34:00,
2013-07-27 01:39:00,52.4,47.1,30.09,WNW,301,0.0,1.0,82,0.00,,,0.00,WeatherCatV1.20B785,2013-07-27 06:39:00,
2013-07-27 01:44:00,52.3,47.3,30.09,WNW,301,0.0,2.0,83,0.00,,,0.00,WeatherCatV1.20B785,2013-07-27 06:44:00,
2013-07-27 01:49:00,52.2,47.2,30.09,WNW,301,0.0,1.0,83,0.00,,,0.00,WeatherCatV1.20B785,2013-07-27 06:49:00,
2013-07-27 01:54:00,52.1,47.1,30.09,WNW,301,0.0,1.0,83,0.00,,,0.00,WeatherCatV1.20B785,2013-07-27 06:54:00,
2013-07-27 01:59:00,52.0,47.0,30.09,WNW,301,0.0,0.0,83,0.00,,,0.00,WeatherCatV1.20B785,2013-07-27 06:59:00,
2013-07-27 02:04:00,51.9,46.9,30.09,WNW,301,0.0,2.0,83,0.00,,,0.00,WeatherCatV1.20B785,2013-07-27 07:04:00,
2013-07-27 02:09:00,51.9,46.9,30.09,WNW,303,0.0,2.0,83,0.00,,,0.00,WeatherCatV1.20B785,2013-07-27 07:09:00,
2013-07-27 02:14:00,51.8,46.8,30.09,WNW,303,0.0,2.0,83,0.00,,,0.00,WeatherCatV1.20B785,2013-07-27 07:14:00,
2013-07-27 02:19:00,51.8,47.1,30.09,WNW,303,0.0,0.0,84,0.00,,,0.00,WeatherCatV1.20B785,2013-07-27 07:19:00,
2013-07-27 02:24:00,51.7,47.0,30.09,WNW,303,0.0,0.0,84,0.00,,,0.00,WeatherCatV1.20B785,2013-07-27 07:24:00,
2013-07-27 02:29:00,51.7,47.3,30.09,WNW,303,0.0,0.0,85,0.00,,,0.00,WeatherCatV1.20B785,2013-07-27 07:29:00,
2013-07-27 02:34:00,51.7,47.3,30.09,WNW,303,0.0,1.0,85,0.00,,,0.00,WeatherCatV1.20B785,2013-07-27 07:34:00,
2013-07-27 02:39:00,51.6,47.2,30.09,WNW,303,0.0,1.0,85,0.00,,,0.00,WeatherCatV1.20B785,2013-07-27 07:39:00,
2013-07-27 02:44:00,51.5,47.5,30.09,WNW,303,0.0,0.0,86,0.00,,,0.00,WeatherCatV1.20B785,2013-07-27 07:44:00,
2013-07-27 02:49:00,51.5,47.5,30.08,WNW,303,1.0,1.0,86,0.00,,,0.00,WeatherCatV1.20B785,2013-07-27 07:49:00,
2013-07-27 02:54:00,51.4,47.0,30.08,WNW,303,1.0,1.0,85,0.00,,,0.00,WeatherCatV1.20B785,2013-07-27 07:54:00,
2013-07-27 02:59:00,51.4,47.0,30.08,WNW,303,0.0,1.0,85,0.00,,,0.00,WeatherCatV1.20B785,2013-07-27 07:59:00,
2013-07-27 03:04:00,51.3,46.9,30.08,WNW,303,0.0,0.0,85,0.00,,,0.00,WeatherCatV1.20B785,2013-07-27 08:04:00,
2013-07-27 03:09:00,51.3,46.9,30.08,WNW,303,0.0,0.0,85,0.00,,,0.00,WeatherCatV1.20B785,2013-07-27 08:09:00,
2013-07-27 03:14:00,51.2,46.8,30.08,WNW,303,0.0,0.0,85,0.00,,,0.00,WeatherCatV1.20B785,2013-07-27 08:14:00,
2013-07-27 03:19:00,51.1,46.8,30.08,WNW,303,0.0,0.0,85,0.00,,,0.00,WeatherCatV1.20B785,2013-07-27 08:19:00,
2013-07-27 03:24:00,51.0,46.7,30.08,WNW,303,0.0,0.0,85,0.00,,,0.00,WeatherCatV1.20B785,2013-07-27 08:24:00,
2013-07-27 03:29:00,51.0,46.7,30.08,WNW,303,0.0,1.0,85,0.00,,,0.00,WeatherCatV1.20B785,2013-07-27 08:29:00,
2013-07-27 03:34:00,50.8,46.5,30.08,WNW,303,1.0,1.0,85,0.00,,,0.00,WeatherCatV1.20B785,2013-07-27 08:34:00,
2013-07-27 03:39:00,50.8,46.5,30.08,WNW,303,0.0,1.0,85,0.00,,,0.00,WeatherCatV1.20B785,2013-07-27 08:39:00,
2013-07-27 03:44:00,50.7,46.4,30.08,WNW,303,0.0,2.0,85,0.00,,,0.00,WeatherCatV1.20B785,2013-07-27 08:44:00,
2013-07-27 03:49:00,50.7,46.4,30.08,WNW,303,0.0,0.0,85,0.00,,,0.00,WeatherCatV1.20B785,2013-07-27 08:49:00,
2013-07-27 03:54:00,50.6,46.3,30.08,WNW,303,0.0,0.0,85,0.00,,,0.00,WeatherCatV1.20B785,2013-07-27 08:54:00,
2013-07-27 03:59:00,50.5,46.2,30.08,WNW,303,0.0,1.0,85,0.00,,,0.00,WeatherCatV1.20B785,2013-07-27 08:59:00,
2013-07-27 04:04:00,50.4,46.1,30.08,WNW,303,0.0,1.0,85,0.00,,,0.00,WeatherCatV1.20B785,2013-07-27 09:04:00,
2013-07-27 04:09:00,50.4,46.4,30.08,WNW,303,0.0,1.0,86,0.00,,,0.00,WeatherCatV1.20B785,2013-07-27 09:09:00,
2013-07-27 04:14:00,50.3,46.3,30.08,WNW,303,0.0,1.0,86,0.00,,,0.00,WeatherCatV1.20B785,2013-07-27 09:14:00,
2013-07-27 04:19:00,50.2,46.2,30.08,WNW,303,0.0,2.0,86,0.00,,,0.00,WeatherCatV1.20B785,2013-07-27 09:19:00,
2013-07-27 04:24:00,50.1,46.1,30.08,WNW,303,0.0,1.0,86,0.00,,,0.00,WeatherCatV1.20B785,2013-07-27 09:24:00,
2013-07-27 04:29:00,50.0,46.3,30.08,WNW,303,0.0,2.0,87,0.00,,,0.00,WeatherCatV1.20B785,2013-07-27 09:29:00,
2013-07-27 04:34:00,49.9,46.2,30.08,WNW,303,0.0,1.0,87,0.00,,,0.00,WeatherCatV1.20B785,2013-07-27 09:34:00,
2013-07-27 04:39:00,49.9,46.2,30.08,WNW,303,0.0,0.0,87,0.00,,,0.00,WeatherCatV1.20B785,2013-07-27 09:39:00,
2013-07-27 04:44:00,49.8,46.1,30.08,WNW,303,0.0,0.0,87,0.00,,,0.00,WeatherCatV1.20B785,2013-07-27 09:44:00,
2013-07-27 04:49:00,49.7,46.0,30.08,WNW,303,0.0,1.0,87,0.00,,,0.00,WeatherCatV1.20B785,2013-07-27 09:49:00,
2013-07-27 04:54:00,49.7,46.0,30.08,WNW,303,0.0,1.0,87,0.00,,,0.00,WeatherCatV1.20B785,2013-07-27 09:54:00,
2013-07-27 04:59:00,49.7,46.0,30.09,WNW,303,0.0,0.0,87,0.00,,,0.00,WeatherCatV1.20B785,2013-07-27 09:59:00,
2013-07-27 05:04:00,49.5,46.1,30.09,WNW,303,0.0,0.0,88,0.00,,,0.00,WeatherCatV1.20B785,2013-07-27 10:04:00,
2013-07-27 05:09:00,49.4,46.0,30.09,WNW,303,0.0,0.0,88,0.00,,,0.00,WeatherCatV1.20B785,2013-07-27 10:09:00,
2013-07-27 05:14:00,49.2,45.8,30.08,WNW,303,0.0,0.0,88,0.00,,,0.00,WeatherCatV1.20B785,2013-07-27 10:14:00,
2013-07-27 05:19:00,49.1,45.7,30.08,WNW,303,0.0,1.0,88,0.00,,,0.00,WeatherCatV1.20B785,2013-07-27 10:19:00,
2013-07-27 05:24:00,49.0,45.6,30.08,WNW,303,1.0,2.0,88,0.00,,,0.00,WeatherCatV1.20B785,2013-07-27 10:24:00,
2013-07-27 05:29:00,49.0,45.9,30.09,WNW,303,0.0,1.0,89,0.00,,,0.00,WeatherCatV1.20B785,2013-07-27 10:29:00,
2013-07-27 05:34:00,49.0,45.9,30.09,NNW,332,1.0,1.0,89,0.00,,,0.00,WeatherCatV1.20B785,2013-07-27 10:34:00,
2013-07-27 05:39:00,49.0,45.9,30.09,NNW,332,0.0,0.0,89,0.00,,,0.00,WeatherCatV1.20B785,2013-07-27 10:39:00,
2013-07-27 05:44:00,49.0,45.9,30.09,WNW,303,0.0,3.0,89,0.00,,,0.00,WeatherCatV1.20B785,2013-07-27 10:44:00,
2013-07-27 05:49:00,48.9,45.8,30.09,WNW,303,0.0,1.0,89,0.00,,,0.00,WeatherCatV1.20B785,2013-07-27 10:49:00,
2013-07-27 05:54:00,48.9,45.8,30.09,WNW,303,0.0,0.0,89,0.00,,,0.00,WeatherCatV1.20B785,2013-07-27 10:54:00,
2013-07-27 05:59:00,48.8,45.7,30.09,WNW,303,0.0,1.0,89,0.00,,,0.00,WeatherCatV1.20B785,2013-07-27 10:59:00,
2013-07-27 06:04:00,48.7,45.6,30.09,WNW,303,0.0,0.0,89,0.00,,,0.00,WeatherCatV1.20B785,2013-07-27 11:04:00,
2013-07-27 06:09:00,48.7,45.9,30.09,West,275,0.0,2.0,90,0.00,,,0.00,WeatherCatV1.20B785,2013-07-27 11:09:00,
2013-07-27 06:14:00,48.7,45.9,30.09,West,275,0.0,1.0,90,0.00,,,0.00,WeatherCatV1.20B785,2013-07-27 11:14:00,
2013-07-27 06:19:00,48.7,45.9,30.09,West,275,0.0,0.0,90,0.00,,,0.00,WeatherCatV1.20B785,2013-07-27 11:19:00,
2013-07-27 06:24:00,48.6,45.5,30.09,West,275,0.0,0.0,89,0.00,,,0.00,WeatherCatV1.20B785,2013-07-27 11:24:00,
2013-07-27 06:29:00,48.5,45.4,30.09,West,275,0.0,0.0,89,0.00,,,0.00,WeatherCatV1.20B785,2013-07-27 11:29:00,
2013-07-27 06:34:00,48.4,45.6,30.09,West,275,0.0,2.0,90,0.00,,,0.00,WeatherCatV1.20B785,2013-07-27 11:34:00,
2013-07-27 06:39:00,48.4,45.6,30.09,West,275,0.0,0.0,90,0.00,,,0.00,WeatherCatV1.20B785,2013-07-27 11:39:00,
2013-07-27 06:44:00,48.4,45.6,30.09,West,275,0.0,0.0,90,0.00,,,0.00,WeatherCatV1.20B785,2013-07-27 11:44:00,
2013-07-27 06:49:00,48.5,45.7,30.09,West,275,0.0,1.0,90,0.00,,,0.00,WeatherCatV1.20B785,2013-07-27 11:49:00,
2013-07-27 06:54:00,48.5,45.7,30.09,West,275,0.0,1.0,90,0.00,,,0.00,WeatherCatV1.20B785,2013-07-27 11:54:00,
2013-07-27 06:59:00,48.7,45.9,30.09,West,275,0.0,2.0,90,0.00,,,0.00,WeatherCatV1.20B785,2013-07-27 11:59:00,
2013-07-27 07:04:00,48.8,46.0,30.09,West,275,0.0,1.0,90,0.00,,,0.00,WeatherCatV1.20B785,2013-07-27 12:04:00,
2013-07-27 07:09:00,49.1,46.3,30.09,West,275,1.0,2.0,90,0.00,,,0.00,WeatherCatV1.20B785,2013-07-27 12:09:00,
2013-07-27 07:14:00,49.4,46.6,30.10,West,276,0.0,3.0,90,0.00,,,0.00,WeatherCatV1.20B785,2013-07-27 12:14:00,
2013-07-27 07:19:00,49.7,46.6,30.10,West,276,0.0,2.0,89,0.00,,,0.00,WeatherCatV1.20B785,2013-07-27 12:19:00,
2013-07-27 07:24:00,50.1,47.0,30.10,West,276,2.0,2.0,89,0.00,,,0.00,WeatherCatV1.20B785,2013-07-27 12:24:00,
2013-07-27 07:29:00,50.5,47.1,30.10,West,280,0.0,2.0,88,0.00,,,0.00,WeatherCatV1.20B785,2013-07-27 12:29:00,
2013-07-27 07:34:00,50.9,47.5,30.10,West,280,1.0,3.0,88,0.00,,,0.00,WeatherCatV1.20B785,2013-07-27 12:34:00,
2013-07-27 07:39:00,51.3,47.9,30.10,NNW,336,1.0,3.0,88,0.00,,,0.00,WeatherCatV1.20B785,2013-07-27 12:39:00,
2013-07-27 07:44:00,51.8,48.0,30.10,WNW,301,1.0,2.0,87,0.00,,,0.00,WeatherCatV1.20B785,2013-07-27 12:44:00,
2013-07-27 07:49:00,52.3,48.2,30.10,WNW,296,2.0,4.0,86,0.00,,,0.00,WeatherCatV1.20B785,2013-07-27 12:49:00,
2013-07-27 07:54:00,52.7,48.3,30.10,NNW,330,0.0,4.0,85,0.00,,,0.00,WeatherCatV1.20B785,2013-07-27 12:54:00,
2013-07-27 07:59:00,53.2,48.8,30.10,West,273,1.0,3.0,85,0.00,,,0.00,WeatherCatV1.20B785,2013-07-27 12:59:00,
2013-07-27 08:04:00,53.6,48.9,30.10,WNW,286,2.0,3.0,84,0.00,,,0.00,WeatherCatV1.20B785,2013-07-27 13:04:00,
2013-07-27 08:09:00,54.0,49.3,30.10,NNE,29,3.0,4.0,84,0.00,,,0.00,WeatherCatV1.20B785,2013-07-27 13:09:00,
2013-07-27 08:14:00,54.4,49.3,30.10,West,281,0.0,4.0,83,0.00,,,0.00,WeatherCatV1.20B785,2013-07-27 13:14:00,
2013-07-27 08:19:00,54.7,49.3,30.10,NNW,337,3.0,6.0,82,0.00,,,0.00,WeatherCatV1.20B785,2013-07-27 13:19:00,
2013-07-27 08:24:00,55.0,49.9,30.10,WNW,285,3.0,3.0,83,0.00,,,0.00,WeatherCatV1.20B785,2013-07-27 13:24:00,
2013-07-27 08:29:00,55.4,49.7,30.10,WNW,292,2.0,5.0,81,0.00,,,0.00,WeatherCatV1.20B785,2013-07-27 13:29:00,
2013-07-27 08:34:00,55.7,49.6,30.10,NNW,345,3.0,4.0,80,0.00,,,0.00,WeatherCatV1.20B785,2013-07-27 13:34:00,
2013-07-27 08:39:00,55.9,49.8,30.10,West,264,2.0,5.0,80,0.00,,,0.00,WeatherCatV1.20B785,2013-07-27 13:39:00,
2013-07-27 08:44:00,56.2,50.1,30.10,NW,324,3.0,6.0,80,0.00,,,0.00,WeatherCatV1.20B785,2013-07-27 13:44:00,
2013-07-27 08:49:00,56.5,50.1,30.10,West,275,1.0,6.0,79,0.00,,,0.00,WeatherCatV1.20B785,2013-07-27 13:49:00,
2013-07-27 08:54:00,56.9,50.8,30.10,NW,312,2.0,4.0,80,0.00,,,0.00,WeatherCatV1.20B785,2013-07-27 13:54:00,
2013-07-27 08:59:00,57.4,50.2,30.10,NW,320,2.0,9.0,77,0.00,,,0.00,WeatherCatV1.20B785,2013-07-27 13:59:00,
2013-07-27 09:04:00,58.2,50.7,30.10,WNW,285,2.0,3.0,76,0.00,,,0.00,WeatherCatV1.20B785,2013-07-27 14:04:00,
2013-07-27 09:09:00,58.5,49.5,30.10,WNW,303,5.0,7.0,72,0.00,,,0.00,WeatherCatV1.20B785,2013-07-27 14:09:00,
2013-07-27 09:14:00,58.6,49.2,30.10,NW,323,1.0,9.0,71,0.00,,,0.00,WeatherCatV1.20B785,2013-07-27 14:14:00,
2013-07-27 09:19:00,58.8,48.7,30.10,NW,316,4.0,6.0,69,0.00,,,0.00,WeatherCatV1.20B785,2013-07-27 14:19:00,
2013-07-27 09:24:00,59.0,49.2,30.10,NW,318,5.0,9.0,70,0.00,,,0.00,WeatherCatV1.20B785,2013-07-27 14:24:00,
2013-07-27 09:29:00,59.3,48.3,30.10,NW,311,0.0,8.0,67,0.00,,,0.00,WeatherCatV1.20B785,2013-07-27 14:29:00,
2013-07-27 09:34:00,59.5,48.5,30.10,WNW,295,2.0,7.0,67,0.00,,,0.00,WeatherCatV1.20B785,2013-07-27 14:34:00,
2013-07-27 09:39:00,59.6,48.6,30.10,NW,317,3.0,8.0,67,0.00,,,0.00,WeatherCatV1.20B785,2013-07-27 14:39:00,
2013-07-27 09:44:00,60.0,47.8,30.10,NW,325,1.0,3.0,64,0.00,,,0.00,WeatherCatV1.20B785,2013-07-27 14:44:00,
2013-07-27 09:49:00,60.4,48.2,30.10,NNW,329,3.0,9.0,64,0.00,,,0.00,WeatherCatV1.20B785,2013-07-27 14:49:00,
2013-07-27 09:54:00,60.5,46.5,30.10,NW,319,3.0,6.0,60,0.00,,,0.00,WeatherCatV1.20B785,2013-07-27 14:54:00,
2013-07-27 09:59:00,60.5,45.7,30.10,West,277,3.0,8.0,58,0.00,,,0.00,WeatherCatV1.20B785,2013-07-27 14:59:00,
2013-07-27 10:04:00,60.6,47.5,30.10,NW,326,4.0,7.0,62,0.00,,,0.00,WeatherCatV1.20B785,2013-07-27 15:04:00,
2013-07-27 10:09:00,60.7,45.8,30.10,NW,320,3.0,6.0,58,0.00,,,0.00,WeatherCatV1.20B785,2013-07-27 15:09:00,
2013-07-27 10:14:00,60.8,45.0,30.10,NW,308,3.0,8.0,56,0.00,,,0.00,WeatherCatV1.20B785,2013-07-27 15:14:00,
2013-07-27 10:19:00,60.7,44.9,30.10,NW,326,6.0,9.0,56,0.00,,,0.00,WeatherCatV1.20B785,2013-07-27 15:19:00,
2013-07-27 10:24:00,60.6,44.8,30.10,WNW,302,4.0,7.0,56,0.00,,,0.00,WeatherCatV1.20B785,2013-07-27 15:24:00,
2013-07-27 10:29:00,60.8,44.5,30.10,NE,43,1.0,9.0,55,0.00,,,0.00,WeatherCatV1.20B785,2013-07-27 15:29:00,
2013-07-27 10:34:00,61.3,44.5,30.10,North,350,2.0,5.0,54,0.00,,,0.00,WeatherCatV1.20B785,2013-07-27 15:34:00,
2013-07-27 10:39:00,61.7,44.4,30.10,North,5,2.0,7.0,53,0.00,,,0.00,WeatherCatV1.20B785,2013-07-27 15:39:00,
2013-07-27 10:44:00,62.1,43.8,30.10,WNW,284,2.0,6.0,51,0.00,,,0.00,WeatherCatV1.20B785,2013-07-27 15:44:00,
2013-07-27 10:49:00,62.3,45.0,30.10,West,278,2.0,9.0,53,0.00,,,0.00,WeatherCatV1.20B785,2013-07-27 15:49:00,
2013-07-27 10:54:00,62.4,45.5,30.09,NNW,334,2.0,7.0,54,0.00,,,0.00,WeatherCatV1.20B785,2013-07-27 15:54:00,
2013-07-27 10:59:00,62.5,45.1,30.09,East,81,1.0,7.0,53,0.00,,,0.00,WeatherCatV1.20B785,2013-07-27 15:59:00,
2013-07-27 11:04:00,62.4,45.0,30.09,NNW,332,4.0,7.0,53,0.00,,,0.00,WeatherCatV1.20B785,2013-07-27 16:04:00,
2013-07-27 11:09:00,62.7,45.8,30.09,East,99,3.0,9.0,54,0.00,,,0.00,WeatherCatV1.20B785,2013-07-27 16:09:00,
2013-07-27 11:14:00,63.2,45.8,30.09,NNW,336,4.0,6.0,53,0.00,,,0.00,WeatherCatV1.20B785,2013-07-27 16:14:00,
2013-07-27 11:19:00,63.5,45.5,30.09,SW,226,2.0,8.0,52,0.00,,,0.00,WeatherCatV1.20B785,2013-07-27 16:19:00,
2013-07-27 11:24:00,63.2,46.3,30.09,NNW,338,2.0,5.0,54,0.00,,,0.00,WeatherCatV1.20B785,2013-07-27 16:24:00,
2013-07-27 11:29:00,63.1,45.7,30.09,NW,321,1.0,6.0,53,0.00,,,0.00,WeatherCatV1.20B785,2013-07-27 16:29:00,
2013-07-27 11:34:00,63.2,46.3,30.08,North,355,3.0,7.0,54,0.00,,,0.00,WeatherCatV1.20B785,2013-07-27 16:34:00,
2013-07-27 11:39:00,63.4,45.5,30.09,NNW,343,1.0,4.0,52,0.00,,,0.00,WeatherCatV1.20B785,2013-07-27 16:39:00,
2013-07-27 11:44:00,63.2,45.3,30.09,WNW,282,6.0,6.0,52,0.00,,,0.00,WeatherCatV1.20B785,2013-07-27 16:44:00,
2013-07-27 11:49:00,62.6,45.2,30.09,NNE,24,2.0,5.0,53,0.00,,,0.00,WeatherCatV1.20B785,2013-07-27 16:49:00,
2013-07-27 11:54:00,62.8,45.9,30.09,NW,318,5.0,5.0,54,0.00,,,0.00,WeatherCatV1.20B785,2013-07-27 16:54:00,
2013-07-27 11:59:00,63.3,44.9,30.08,NNE,15,1.0,4.0,51,0.00,,,0.00,WeatherCatV1.20B785,2013-07-27 16:59:00,
2013-07-27 12:04:00,63.8,45.8,30.08,NW,322,3.0,7.0,52,0.00,,,0.00,WeatherCatV1.20B785,2013-07-27 17:04:00,
2013-07-27 12:09:00,63.9,46.4,30.08,West,274,1.0,6.0,53,0.00,,,0.00,WeatherCatV1.20B785,2013-07-27 17:09:00,
2013-07-27 12:14:00,64.4,45.3,30.08,NNW,335,3.0,7.0,50,0.00,,,0.00,WeatherCatV1.20B785,2013-07-27 17:14:00,
2013-07-27 12:19:00,64.3,44.7,30.08,NW,322,5.0,13.0,49,0.00,,,0.00,WeatherCatV1.20B785,2013-07-27 17:19:00,
2013-07-27 12:24:00,64.5,44.9,30.08,West,281,4.0,9.0,49,0.00,,,0.00,WeatherCatV1.20B785,2013-07-27 17:24:00,
2013-07-27 12:29:00,64.9,45.8,30.08,North,10,2.0,9.0,50,0.00,,,0.00,WeatherCatV1.20B785,2013-07-27 17:29:00,
2013-07-27 12:34:00,65.4,45.2,30.08,East,95,1.0,5.0,48,0.00,,,0.00,WeatherCatV1.20B785,2013-07-27 17:34:00,
2013-07-27 12:39:00,66.1,46.9,30.08,WSW,252,5.0,5.0,50,0.00,,,0.00,WeatherCatV1.20B785,2013-07-27 17:39:00,
2013-07-27 12:44:00,65.5,44.7,30.08,NNW,332,2.0,7.0,47,0.00,,,0.00,WeatherCatV1.20B785,2013-07-27 17:44:00,
2013-07-27 12:49:00,65.2,45.0,30.08,NW,312,4.0,6.0,48,0.00,,,0.00,WeatherCatV1.20B785,2013-07-27 17:49:00,
2013-07-27 12:54:00,65.5,45.3,30.08,WNW,291,0.0,4.0,48,0.00,,,0.00,WeatherCatV1.20B785,2013-07-27 17:54:00,
2013-07-27 12:59:00,65.7,45.5,30.07,NW,322,5.0,8.0,48,0.00,,,0.00,WeatherCatV1.20B785,2013-07-27 17:59:00,
2013-07-27 13:04:00,65.5,45.3,30.07,East,98,1.0,8.0,48,0.00,,,0.00,WeatherCatV1.20B785,2013-07-27 18:04:00,
2013-07-27 13:09:00,65.7,44.3,30.07,WNW,295,2.0,9.0,46,0.00,,,0.00,WeatherCatV1.20B785,2013-07-27 18:09:00,
2013-07-27 13:14:00,65.5,45.8,30.07,North,351,2.0,4.0,49,0.00,,,0.00,WeatherCatV1.20B785,2013-07-27 18:14:00,
2013-07-27 13:19:00,66.1,45.3,30.07,NNW,334,5.0,6.0,47,0.00,,,0.00,WeatherCatV1.20B785,2013-07-27 18:19:00,
2013-07-27 13:24:00,65.9,44.5,30.06,NW,311,3.0,5.0,46,0.00,,,0.00,WeatherCatV1.20B785,2013-07-27 18:24:00,
2013-07-27 13:29:00,65.6,45.9,30.06,NW,324,5.0,8.0,49,0.00,,,0.00,WeatherCatV1.20B785,2013-07-27 18:29:00,
2013-07-27 13:34:00,66.0,45.2,30.06,NW,324,2.0,6.0,47,0.00,,,0.00,WeatherCatV1.20B785,2013-07-27 18:34:00,
2013-07-27 13:39:00,66.2,45.4,30.06,West,271,5.0,7.0,47,0.00,,,0.00,WeatherCatV1.20B785,2013-07-27 18:39:00,
2013-07-27 13:44:00,66.3,45.5,30.06,ENE,68,0.0,5.0,47,0.00,,,0.00,WeatherCatV1.20B785,2013-07-27 18:44:00,
2013-07-27 13:49:00,66.4,45.0,30.05,WNW,301,4.0,4.0,46,0.00,,,0.00,WeatherCatV1.20B785,2013-07-27 18:49:00,
2013-07-27 13:54:00,66.8,45.3,30.05,WNW,301,2.0,6.0,46,0.00,,,0.00,WeatherCatV1.20B785,2013-07-27 18:54:00,
2013-07-27 13:59:00,66.9,45.4,30.05,WNW,295,4.0,4.0,46,0.00,,,0.00,WeatherCatV1.20B785,2013-07-27 18:59:00,
2013-07-27 14:04:00,67.1,45.0,30.05,WNW,286,3.0,3.0,45,0.00,,,0.00,WeatherCatV1.20B785,2013-07-27 19:04:00,
2013-07-27 14:09:00,67.3,45.8,30.05,North,0,1.0,6.0,46,0.00,,,0.00,WeatherCatV1.20B785,2013-07-27 19:09:00,
2013-07-27 14:14:00,67.3,45.2,30.04,NW,326,2.0,4.0,45,0.00,,,0.00,WeatherCatV1.20B785,2013-07-27 19:14:00,
2013-07-27 14:19:00,67.3,45.8,30.04,North,352,4.0,7.0,46,0.00,,,0.00,WeatherCatV1.20B785,2013-07-27 19:19:00,
2013-07-27 14:24:00,67.3,44.6,30.04,NW,309,2.0,9.0,44,0.00,,,0.00,WeatherCatV1.20B785,2013-07-27 19:24:00,
2013-07-27 14:29:00,67.3,45.8,30.04,West,280,4.0,5.0,46,0.00,,,0.00,WeatherCatV1.20B785,2013-07-27 19:29:00,
2013-07-27 14:34:00,67.2,46.8,30.04,West,266,0.0,2.0,48,0.00,,,0.00,WeatherCatV1.20B785,2013-07-27 19:34:00,
2013-07-27 14:39:00,67.7,46.7,30.04,NNW,329,4.0,4.0,47,0.00,,,0.00,WeatherCatV1.20B785,2013-07-27 19:39:00,
2013-07-27 14:44:00,68.2,45.4,30.04,WNW,293,2.0,8.0,44,0.00,,,0.00,WeatherCatV1.20B785,2013-07-27 19:44:00,
2013-07-27 14:49:00,68.3,44.9,30.03,NE,49,2.0,4.0,43,0.00,,,0.00,WeatherCatV1.20B785,2013-07-27 19:49:00,
2013-07-27 14:54:00,68.4,45.6,30.03,NNW,331,4.0,7.0,44,0.00,,,0.00,WeatherCatV1.20B785,2013-07-27 19:54:00,
2013-07-27 14:59:00,68.2,46.0,30.03,ESE,103,2.0,2.0,45,0.00,,,0.00,WeatherCatV1.20B785,2013-07-27 19:59:00,
2013-07-27 15:04:00,68.3,46.7,30.03,North,349,5.0,5.0,46,0.00,,,0.00,WeatherCatV1.20B785,2013-07-27 20:04:00,
2013-07-27 15:09:00,68.4,46.8,30.03,NW,313,5.0,8.0,46,0.00,,,0.00,WeatherCatV1.20B785,2013-07-27 20:09:00,
2013-07-27 15:14:00,68.5,47.5,30.02,WNW,286,3.0,4.0,47,0.00,,,0.00,WeatherCatV1.20B785,2013-07-27 20:14:00,
2013-07-27 15:19:00,68.5,46.3,30.02,NNW,328,4.0,4.0,45,0.00,,,0.00,WeatherCatV1.20B785,2013-07-27 20:19:00,
2013-07-27 15:24:00,68.6,46.4,30.02,North,351,1.0,3.0,45,0.00,,,0.00,WeatherCatV1.20B785,2013-07-27 20:24:00,
2013-07-27 15:29:00,68.8,45.4,30.02,WNW,283,3.0,8.0,43,0.00,,,0.00,WeatherCatV1.20B785,2013-07-27 20:29:00,
2013-07-27 15:34:00,68.7,45.9,30.02,WNW,291,3.0,4.0,44,0.00,,,0.00,WeatherCatV1.20B785,2013-07-27 20:34:00,
2013-07-27 15:39:00,68.5,45.7,30.02,West,268,3.0,6.0,44,0.00,,,0.00,WeatherCatV1.20B785,2013-07-27 20:39:00,
2013-07-27 15:44:00,68.3,46.1,30.02,NNW,335,7.0,7.0,45,0.00,,,0.00,WeatherCatV1.20B785,2013-07-27 20:44:00,
2013-07-27 15:49:00,68.5,45.7,30.02,NW,304,2.0,7.0,44,0.00,,,0.00,WeatherCatV1.20B785,2013-07-27 20:49:00,
2013-07-27 15:54:00,68.9,46.7,30.01,North,353,5.0,5.0,45,0.00,,,0.00,WeatherCatV1.20B785,2013-07-27 20:54:00,
2013-07-27 15:59:00,69.1,46.3,30.01,NW,322,3.0,3.0,44,0.00,,,0.00,WeatherCatV1.20B785,2013-07-27 20:59:00,
2013-07-27 16:04:00,69.4,47.1,30.01,West,279,4.0,8.0,45,0.00,,,0.00,WeatherCatV1.20B785,2013-07-27 21:04:00,
2013-07-27 16:09:00,69.4,47.1,30.01,WNW,295,1.0,8.0,45,0.00,,,0.00,WeatherCatV1.20B785,2013-07-27 21:09:00,
2013-07-27 16:14:00,69.4,47.1,30.00,NNW,339,1.0,5.0,45,0.00,,,0.00,WeatherCatV1.20B785,2013-07-27 21:14:00,
2013-07-27 16:19:00,69.6,46.7,30.01,NNE,17,4.0,4.0,44,0.00,,,0.00,WeatherCatV1.20B785,2013-07-27 21:19:00,
2013-07-27 16:24:00,69.7,46.8,30.01,NW,311,2.0,8.0,44,0.00,,,0.00,WeatherCatV1.20B785,2013-07-27 21:24:00,
2013-07-27 16:29:00,69.5,46.0,30.01,WNW,293,3.0,5.0,43,0.00,,,0.00,WeatherCatV1.20B785,2013-07-27 21:29:00,
2013-07-27 16:34:00,69.5,47.2,30.00,NNW,330,4.0,5.0,45,0.00,,,0.00,WeatherCatV1.20B785,2013-07-27 21:34:00,
2013-07-27 16:39:00,69.5,46.6,30.01,NW,325,6.0,9.0,44,0.00,,,0.00,WeatherCatV1.20B785,2013-07-27 21:39:00,
2013-07-27 16:44:00,69.7,45.6,30.00,WNW,282,4.0,4.0,42,0.00,,,0.00,WeatherCatV1.20B785,2013-07-27 21:44:00,
2013-07-27 16:49:00,69.8,47.5,30.00,NNW,336,6.0,6.0,45,0.00,,,0.00,WeatherCatV1.20B785,2013-07-27 21:49:00,
2013-07-27 16:54:00,70.4,46.8,30.00,NNW,336,0.0,3.0,43,0.00,,,0.00,WeatherCatV1.20B785,2013-07-27 21:54:00,
2013-07-27 16:59:00,70.6,47.6,30.00,NE,55,1.0,4.0,44,0.00,,,0.00,WeatherCatV1.20B785,2013-07-27 21:59:00,
2013-07-27 17:04:00,70.5,47.5,30.00,WNW,297,4.0,5.0,44,0.00,,,0.00,WeatherCatV1.20B785,2013-07-27 22:04:00,
2013-07-27 17:09:00,70.3,47.3,30.00,NNW,347,4.0,8.0,44,0.00,,,0.00,WeatherCatV1.20B785,2013-07-27 22:09:00,
2013-07-27 17:14:00,69.9,45.8,30.00,North,0,3.0,5.0,42,0.00,,,0.00,WeatherCatV1.20B785,2013-07-27 22:14:00,
2013-07-27 17:19:00,69.3,46.4,30.00,NNW,336,2.0,3.0,44,0.00,,,0.00,WeatherCatV1.20B785,2013-07-27 22:19:00,
2013-07-27 17:24:00,69.1,46.8,30.00,West,273,2.0,5.0,45,0.00,,,0.00,WeatherCatV1.20B785,2013-07-27 22:24:00,
2013-07-27 17:29:00,69.3,46.4,29.99,West,261,4.0,6.0,44,0.00,,,0.00,WeatherCatV1.20B785,2013-07-27 22:29:00,
2013-07-27 17:34:00,69.5,47.2,29.99,ENE,68,2.0,4.0,45,0.00,,,0.00,WeatherCatV1.20B785,2013-07-27 22:34:00,
2013-07-27 17:39:00,69.9,47.6,29.99,NNW,331,4.0,6.0,45,0.00,,,0.00,WeatherCatV1.20B785,2013-07-27 22:39:00,
2013-07-27 17:44:00,70.1,47.2,29.99,NNW,342,4.0,4.0,44,0.00,,,0.00,WeatherCatV1.20B785,2013-07-27 22:44:00,
2013-07-27 17:49:00,70.0,46.5,29.99,NW,305,4.0,6.0,43,0.00,,,0.00,WeatherCatV1.20B785,2013-07-27 22:49:00,
2013-07-27 17:54:00,69.7,46.8,29.99,WNW,287,2.0,4.0,44,0.00,,,0.00,WeatherCatV1.20B785,2013-07-27 22:54:00,
2013-07-27 17:59:00,69.5,47.2,29.99,WNW,291,0.0,2.0,45,0.00,,,0.00,WeatherCatV1.20B785,2013-07-27 22:59:00,
2013-07-27 18:04:00,69.4,45.9,29.99,NW,322,1.0,6.0,43,0.00,,,0.00,WeatherCatV1.20B785,2013-07-27 23:04:00,
2013-07-27 18:09:00,68.6,45.8,29.99,NW,308,7.0,7.0,44,0.00,,,0.00,WeatherCatV1.20B785,2013-07-27 23:09:00,
2013-07-27 18:14:00,68.3,46.7,29.99,NW,315,1.0,5.0,46,0.00,,,0.00,WeatherCatV1.20B785,2013-07-27 23:14:00,
2013-07-27 18:19:00,68.5,46.9,29.99,West,266,2.0,9.0,46,0.00,,,0.00,WeatherCatV1.20B785,2013-07-27 23:19:00,
2013-07-27 18:24:00,68.7,46.5,29.98,NW,310,1.0,5.0,45,0.00,,,0.00,WeatherCatV1.20B785,2013-07-27 23:24:00,
2013-07-27 18:29:00,68.7,45.9,29.98,North,354,2.0,7.0,44,0.00,,,0.00,WeatherCatV1.20B785,2013-07-27 23:29:00,
2013-07-27 18:34:00,68.6,45.8,29.98,NW,326,2.0,5.0,44,0.00,,,0.00,WeatherCatV1.20B785,2013-07-27 23:34:00,
2013-07-27 18:39:00,68.5,46.3,29.98,NW,304,4.0,9.0,45,0.00,,,0.00,WeatherCatV1.20B785,2013-07-27 23:39:00,
2013-07-27 18:44:00,68.5,46.3,29.98,NW,318,0.0,6.0,45,0.00,,,0.00,WeatherCatV1.20B785,2013-07-27 23:44:00,
2013-07-27 18:49:00,68.3,46.7,29.98,NW,324,1.0,6.0,46,0.00,,,0.00,WeatherCatV1.20B785,2013-07-27 23:49:00,
2013-07-27 18:54:00,67.7,46.2,29.99,NW,306,2.0,4.0,46,0.00,,,0.00,WeatherCatV1.20B785,2013-07-27 23:54:00,
2013-07-27 18:59:00,67.4,45.9,29.98,WNW,286,0.0,4.0,46,0.00,,,0.00,WeatherCatV1.20B785,2013-07-27 23:59:00,
2013-07-27 19:04:00,67.5,46.0,29.98,NW,324,1.0,4.0,46,0.00,,,0.00,WeatherCatV1.20B785,2013-07-28 00:04:00,
2013-07-27 19:09:00,67.6,46.1,29.98,NNW,336,2.0,6.0,46,0.00,,,0.00,WeatherCatV1.20B785,2013-07-28 00:09:00,
2013-07-27 19:14:00,67.4,46.5,29.98,NNW,343,0.0,6.0,47,0.00,,,0.00,WeatherCatV1.20B785,2013-07-28 00:14:00,
2013-07-27 19:19:00,67.3,46.4,29.98,NW,305,0.0,2.0,47,0.00,,,0.00,WeatherCatV1.20B785,2013-07-28 00:19:00,
2013-07-27 19:24:00,67.4,47.0,29.98,WNW,301,1.0,5.0,48,0.00,,,0.00,WeatherCatV1.20B785,2013-07-28 00:24:00,
2013-07-27 19:29:00,67.3,46.9,29.99,NNW,329,2.0,4.0,48,0.00,,,0.00,WeatherCatV1.20B785,2013-07-28 00:29:00,
2013-07-27 19:34:00,67.3,46.9,29.99,NNE,14,4.0,6.0,48,0.00,,,0.00,WeatherCatV1.20B785,2013-07-28 00:34:00,
2013-07-27 19:39:00,66.8,46.5,29.99,West,280,1.0,5.0,48,0.00,,,0.00,WeatherCatV1.20B785,2013-07-28 00:39:00,
2013-07-27 19:44:00,66.5,46.7,29.99,WNW,290,0.0,1.0,49,0.00,,,0.00,WeatherCatV1.20B785,2013-07-28 00:44:00,
2013-07-27 19:49:00,66.3,47.1,29.99,NW,305,3.0,4.0,50,0.00,,,0.00,WeatherCatV1.20B785,2013-07-28 00:49:00,
2013-07-27 19:54:00,66.3,47.1,29.99,WNW,295,1.0,3.0,50,0.00,,,0.00,WeatherCatV1.20B785,2013-07-28 00:54:00,
2013-07-27 19:59:00,66.1,46.9,29.99,North,349,3.0,4.0,50,0.00,,,0.00,WeatherCatV1.20B785,2013-07-28 00:59:00,
2013-07-27 20:04:00,65.9,46.7,29.99,NNW,336,1.0,2.0,50,0.00,,,0.00,WeatherCatV1.20B785,2013-07-28 01:04:00,
2013-07-27 20:09:00,65.8,46.6,29.99,NW,325,1.0,3.0,50,0.00,,,0.00,WeatherCatV1.20B785,2013-07-28 01:09:00,
2013-07-27 20:14:00,65.6,47.0,29.99,NW,322,1.0,6.0,51,0.00,,,0.00,WeatherCatV1.20B785,2013-07-28 01:14:00,
2013-07-27 20:19:00,65.4,47.3,29.99,WNW,286,2.0,3.0,52,0.00,,,0.00,WeatherCatV1.20B785,2013-07-28 01:19:00,
2013-07-27 20:24:00,65.1,47.0,29.99,WNW,287,0.0,2.0,52,0.00,,,0.00,WeatherCatV1.20B785,2013-07-28 01:24:00,
2013-07-27 20:29:00,64.9,47.3,29.99,NNW,337,1.0,3.0,53,0.00,,,0.00,WeatherCatV1.20B785,2013-07-28 01:29:00,
2013-07-27 20:34:00,64.5,47.5,29.99,NW,318,0.0,4.0,54,0.00,,,0.00,WeatherCatV1.20B785,2013-07-28 01:34:00,
2013-07-27 20:39:00,64.3,47.3,29.99,NNW,337,0.0,1.0,54,0.00,,,0.00,WeatherCatV1.20B785,2013-07-28 01:39:00,
2013-07-27 20:44:00,64.0,47.5,29.99,NNW,337,0.0,1.0,55,0.00,,,0.00,WeatherCatV1.20B785,2013-07-28 01:44:00,
2013-07-27 20:49:00,63.7,47.7,29.99,NNW,346,0.0,0.0,56,0.00,,,0.00,WeatherCatV1.20B785,2013-07-28 01:49:00,
2013-07-27 20:54:00,63.4,47.4,29.99,NNW,346,0.0,1.0,56,0.00,,,0.00,WeatherCatV1.20B785,2013-07-28 01:54:00,
2013-07-27 20:59:00,63.0,48.0,29.99,NNW,346,0.0,0.0,58,0.00,,,0.00,WeatherCatV1.20B785,2013-07-28 01:59:00,
2013-07-27 21:04:00,62.6,48.1,29.99,NNW,346,0.0,0.0,59,0.00,,,0.00,WeatherCatV1.20B785,2013-07-28 02:04:00,
2013-07-27 21:09:00,62.1,48.0,30.00,NNW,346,0.0,0.0,60,0.00,,,0.00,WeatherCatV1.20B785,2013-07-28 02:09:00,
2013-07-27 21:14:00,61.6,48.0,30.00,NNW,346,0.0,0.0,61,0.00,,,0.00,WeatherCatV1.20B785,2013-07-28 02:14:00,
2013-07-27 21:19:00,61.2,48.1,30.00,NNW,346,0.0,0.0,62,0.00,,,0.00,WeatherCatV1.20B785,2013-07-28 02:19:00,
2013-07-27 21:24:00,60.8,48.1,30.00,NNW,346,0.0,0.0,63,0.00,,,0.00,WeatherCatV1.20B785,2013-07-28 02:24:00,
2013-07-27 21:29:00,60.4,48.2,30.00,NNW,346,0.0,0.0,64,0.00,,,0.00,WeatherCatV1.20B785,2013-07-28 02:29:00,
2013-07-27 21:34:00,60.0,48.2,30.00,NNW,346,0.0,0.0,65,0.00,,,0.00,WeatherCatV1.20B785,2013-07-28 02:34:00,
2013-07-27 21:39:00,59.6,48.2,30.00,NNW,346,0.0,0.0,66,0.00,,,0.00,WeatherCatV1.20B785,2013-07-28 02:39:00,
2013-07-27 21:44:00,59.1,47.8,30.00,NNW,346,0.0,0.0,66,0.00,,,0.00,WeatherCatV1.20B785,2013-07-28 02:44:00,
2013-07-27 21:49:00,58.7,48.2,30.00,NNW,346,0.0,0.0,68,0.00,,,0.00,WeatherCatV1.20B785,2013-07-28 02:49:00,
2013-07-27 21:54:00,58.4,47.9,30.00,NNW,346,0.0,0.0,68,0.00,,,0.00,WeatherCatV1.20B785,2013-07-28 02:54:00,
2013-07-27 21:59:00,58.0,47.9,30.00,NNW,346,0.0,0.0,69,0.00,,,0.00,WeatherCatV1.20B785,2013-07-28 02:59:00,
2013-07-27 22:04:00,57.6,47.9,30.00,NNW,346,0.0,0.0,70,0.00,,,0.00,WeatherCatV1.20B785,2013-07-28 03:04:00,
2013-07-27 22:09:00,57.3,48.0,30.00,NNW,346,0.0,0.0,71,0.00,,,0.00,WeatherCatV1.20B785,2013-07-28 03:09:00,
2013-07-27 22:14:00,56.9,47.6,30.00,NNW,346,0.0,0.0,71,0.00,,,0.00,WeatherCatV1.20B785,2013-07-28 03:14:00,
2013-07-27 22:19:00,56.6,47.7,30.00,North,10,0.0,0.0,72,0.00,,,0.00,WeatherCatV1.20B785,2013-07-28 03:19:00,
2013-07-27 22:24:00,56.3,47.8,30.00,NNE,14,0.0,0.0,73,0.00,,,0.00,WeatherCatV1.20B785,2013-07-28 03:24:00,
2013-07-27 22:29:00,55.9,47.7,30.00,NNE,14,0.0,0.0,74,0.00,,,0.00,WeatherCatV1.20B785,2013-07-28 03:29:00,
2013-07-27 22:34:00,55.5,47.7,30.00,NNE,14,0.0,0.0,75,0.00,,,0.00,WeatherCatV1.20B785,2013-07-28 03:34:00,
2013-07-27 22:39:00,55.3,47.9,30.00,NNE,14,0.0,0.0,76,0.00,,,0.00,WeatherCatV1.20B785,2013-07-28 03:39:00,
2013-07-27 22:44:00,55.1,48.0,30.00,NNE,18,0.0,0.0,77,0.00,,,0.00,WeatherCatV1.20B785,2013-07-28 03:44:00,
2013-07-27 22:49:00,55.0,48.3,30.00,NNE,18,0.0,0.0,78,0.00,,,0.00,WeatherCatV1.20B785,2013-07-28 03:49:00,
2013-07-27 22:54:00,54.8,48.4,30.00,NNE,18,0.0,0.0,79,0.00,,,0.00,WeatherCatV1.20B785,2013-07-28 03:54:00,
2013-07-27 22:59:00,54.7,48.3,30.00,NNE,18,0.0,0.0,79,0.00,,,0.00,WeatherCatV1.20B785,2013-07-28 03:59:00,
2013-07-27 23:01:00,54.8,48.4,30.00,NNE,18,0.0,0.0,79,0.00,,,0.00,WeatherCatV1.20B785,2013-07-28 04:01:00,
2013-07-27 23:06:00,54.9,48.2,30.00,NNE,18,0.0,0.0,78,0.00,,,0.00,WeatherCatV1.20B785,2013-07-28 04:06:00,
2013-07-27 23:11:00,54.9,48.5,30.00,NNE,18,0.0,0.0,79,0.00,,,0.00,WeatherCatV1.20B785,2013-07-28 04:11:00,
2013-07-27 23:16:00,55.0,48.3,30.00,NNE,18,0.0,0.0,78,0.00,,,0.00,WeatherCatV1.20B785,2013-07-28 04:16:00,
2013-07-27 23:21:00,55.1,48.4,30.00,NNE,18,0.0,0.0,78,0.00,,,0.00,WeatherCatV1.20B785,2013-07-28 04:21:00,
2013-07-27 23:26:00,55.2,48.5,30.00,NNE,18,0.0,0.0,78,0.00,,,0.00,WeatherCatV1.20B785,2013-07-28 04:26:00,
2013-07-27 23:31:00,55.4,48.3,30.00,NNE,18,0.0,0.0,77,0.00,,,0.00,WeatherCatV1.20B785,2013-07-28 04:31:00,
2013-07-27 23:36:00,55.5,48.4,30.00,NNE,18,0.0,0.0,77,0.00,,,0.00,WeatherCatV1.20B785,2013-07-28 04:36:00,
2013-07-27 23:41:00,55.5,49.1,30.00,North,10,0.0,1.0,79,0.00,,,0.00,WeatherCatV1.20B785,2013-07-28 04:41:00,
2013-07-27 23:46:00,55.3,48.9,30.00,North,10,0.0,0.0,79,0.00,,,0.00,WeatherCatV1.20B785,2013-07-28 04:46:00,
2013-07-27 23:51:00,55.1,49.0,30.00,North,10,0.0,0.0,80,0.00,,,0.00,WeatherCatV1.20B785,2013-07-28 04:51:00,
2013-07-27 23:56:00,54.9,48.8,30.00,North,10,0.0,0.0,80,0.00,,,0.00,WeatherCatV1.20B785,2013-07-28 04:56:00,